GW4159 Weather Reports


Display with metric or nautical units.
time (UTC)temp
F
wind
direction
speed
MPH
gust
MPH
rain 1hr
in
rain 24hr
in
rain mn
in
humidity
%
barometer
mb
20260508190035 64 166 3.0 5.0 0.00 0.00 0.00 75 1014.8
20260508184536 64 183 2.0 4.0 0.00 0.00 0.00 76 1014.7
20260508183034 64 172 2.0 4.0 0.00 0.00 0.00 76 1014.5
20260508181532 64 165 2.0 6.0 0.00 0.00 0.00 76 1014.3
20260508180033 64 153 3.0 6.0 0.00 0.00 0.00 77 1014.2
20260508174533 64 145 2.0 4.0 0.00 0.00 0.00 77 1014.3
20260508173101 64 156 3.0 5.0 0.00 0.00 0.00 76 1014.2
20260508171600 65 160 2.0 6.0 0.00 0.00 0.00 76 1014.1
20260508170058 65 154 3.0 5.0 0.00 0.00 0.00 75 1014.1
20260508164558 65 159 0.0 6.0 0.00 0.00 0.00 75 1014.2
20260508163057 65 155 3.0 5.0 0.00 0.00 0.00 74 1014.1
20260508161600 65 135 2.0 4.0 0.00 0.00 0.00 74 1014.0
20260508160054 65 113 3.0 4.0 0.00 0.00 0.00 74 1014.0
20260508154610 65 112 3.0 6.0 0.00 0.00 0.00 74 1014.0
20260508153054 65 87 2.0 4.0 0.00 0.00 0.00 75 1014.1
20260508151554 64 86 3.0 4.0 0.00 0.00 0.00 74 1014.1
20260508150059 65 81 2.0 5.0 0.00 0.00 0.00 75 1014.1
20260508144550 65 72 4.0 5.0 0.00 0.00 0.00 75 1014.2
20260508143106 64 58 3.0 4.0 0.00 0.00 0.00 76 1014.3
20260508141550 64 66 3.0 6.0 0.00 0.00 0.00 77 1014.4
20260508140059 64 63 4.0 6.0 0.00 0.00 0.00 77 1014.3
20260508134546 64 54 5.0 7.0 0.00 0.00 0.00 77 1014.3
20260508133052 64 58 5.0 8.0 0.00 0.00 0.00 78 1014.5
20260508131545 64 54 5.0 7.0 0.00 0.00 0.00 78 1014.6
20260508130047 64 48 7.0 9.0 0.00 0.00 0.00 77 1014.6
20260508130044 64 33 7.0 9.0 0.00 0.00 0.00 77 1014.6
20260508124541 64 39 6.0 9.0 0.00 0.00 0.00 77 1014.5
20260508123040 65 48 7.0 9.0 0.00 0.00 0.00 75 1014.6
20260508121539 65 73 5.0 8.0 0.00 0.00 0.00 73 1014.7
20260508120043 65 64 5.0 8.0 0.00 0.00 0.00 73 1014.8
20260508114509 65 85 6.0 8.0 0.00 0.00 0.00 74 1014.8
20260508113009 65 83 5.0 7.0 0.00 0.00 0.00 73 1014.9
20260508111505 65 87 4.0 6.0 0.00 0.00 0.00 74 1014.9
20260508110005 64 75 5.0 8.0 0.00 0.00 0.00 74 1014.9
20260508104504 65 63 5.0 9.0 0.00 0.00 0.00 75 1015.0
20260508103003 64 63 6.0 9.0 0.00 0.00 0.00 76 1015.0
20260508101559 64 77 7.0 10.0 0.00 0.00 0.00 76 1015.0
20260508100058 64 71 7.0 9.0 0.00 0.00 0.00 76 1015.0
20260508094557 64 76 8.0 9.0 0.00 0.00 0.00 75 1015.0
20260508093056 65 70 4.0 8.0 0.00 0.00 0.00 75 1015.1
20260508091602 64 62 4.0 9.0 0.00 0.00 0.00 77 1015.1
20260508090050 64 77 7.0 9.0 0.00 0.00 0.00 78 1015.1
20260508084557 64 56 5.0 10.0 0.00 0.00 0.00 79 1015.0
20260508083055 64 76 7.0 11.0 0.00 0.00 0.00 80 1015.0
20260508081548 64 59 5.0 9.0 0.00 0.00 0.00 80 1014.9
20260508080100 64 91 5.0 8.0 0.00 0.00 0.00 80 1014.9
20260508074543 64 80 5.0 9.0 0.00 0.00 0.00 81 1014.8
20260508073050 63 77 8.0 10.0 0.00 0.00 0.00 81 1014.7
20260508071541 63 77 8.0 9.0 0.00 0.00 0.00 81 1014.6
20260508070037 63 87 7.0 11.0 0.00 0.00 0.00 82 1014.6
20260508064545 63 76 8.0 10.0 0.00 0.00 0.00 82 1014.4
20260508063036 63 89 8.0 11.0 0.00 0.00 0.00 83 1014.4
20260508061535 63 77 9.0 13.0 0.00 0.00 0.00 83 1014.2
20260508060030 63 70 9.0 11.0 0.00 0.00 0.00 83 1014.1
20260508054540 63 77 8.0 10.0 0.00 0.00 0.00 83 1014.0
20260508053029 63 78 8.0 11.0 0.00 0.00 0.00 83 1014.0
20260508051611 63 100 8.0 12.0 0.00 0.00 0.00 83 1013.7
20260508050105 63 102 9.0 11.0 0.00 0.00 0.00 84 1013.7
20260508044555 63 102 8.0 12.0 0.00 0.00 0.00 84 1013.5
20260508043051 63 105 8.0 12.0 0.00 0.00 0.00 84 1013.3
20260508041555 63 101 10.0 13.0 0.00 0.00 0.00 85 1013.4
20260508040057 63 112 7.0 11.0 0.00 0.00 0.00 85 1013.1
20260508034548 63 114 9.0 12.0 0.00 0.00 0.00 85 1013.0
20260508033047 63 98 9.0 12.0 0.00 0.00 0.00 85 1013.0
20260508031546 63 110 8.0 12.0 0.00 0.00 0.00 85 1013.0
20260508030052 64 100 7.0 12.0 0.00 0.00 0.00 86 1013.0
20260508024542 63 94 9.0 12.0 0.00 0.00 0.00 86 1013.0
20260508023041 63 106 10.0 13.0 0.00 0.00 0.00 86 1012.9
20260508021540 63 93 10.0 15.0 0.00 0.00 0.00 86 1013.0
20260508020039 63 88 10.0 15.0 0.00 0.00 0.00 87 1013.1
20260508014534 64 102 10.0 14.0 0.00 0.00 0.00 86 1013.1
20260508013035 64 90 11.0 15.0 0.00 0.00 0.00 86 1013.0
20260508011529 64 93 10.0 13.0 0.00 0.00 0.00 85 1013.1
20260508010031 64 102 10.0 14.0 0.00 0.00 0.00 85 1013.1
20260508004530 64 110 10.0 13.0 0.00 0.00 0.00 85 1013.2
20260508003024 65 89 10.0 14.0 0.00 0.00 0.00 84 1013.1
20260508001522 65 98 10.0 13.0 0.00 0.00 0.00 84 1013.2
20260508000021 65 112 8.0 12.0 0.00 0.00 0.00 84 1013.3
20260507234622 65 109 9.0 14.0 0.00 0.00 0.00 84 1013.3
20260507233111 65 104 10.0 13.0 0.00 0.02 0.00 84 1013.4
20260507231550 65 116 9.0 13.0 0.00 0.02 0.00 84 1013.4
20260507230048 65 121 8.0 14.0 0.00 0.02 0.00 84 1013.4
20260507224548 65 114 9.0 14.0 0.00 0.02 0.00 84 1013.4
20260507223056 65 118 10.0 14.0 0.00 0.02 0.00 84 1013.3
20260507221544 65 110 9.0 14.0 0.00 0.02 0.00 84 1013.3
20260507220040 65 120 9.0 12.0 0.00 0.02 0.00 84 1013.2
20260507214536 65 105 8.0 12.0 0.00 0.02 0.00 83 1013.1
20260507213036 65 107 7.0 10.0 0.00 0.02 0.00 83 1013.2
20260507211541 65 110 8.0 11.0 0.00 0.02 0.00 82 1013.2
20260507210030 65 117 8.0 11.0 0.00 0.02 0.00 82 1013.2
20260507204525 65 111 6.0 9.0 0.00 0.02 0.00 81 1013.4
20260507203025 65 103 7.0 10.0 0.00 0.02 0.02 81 1013.4
20260507201524 65 127 8.0 11.0 0.00 0.02 0.02 80 1013.4
20260507200019 65 359 7.0 12.0 0.00 0.02 0.02 80 1013.4
20260507194530 65 112 8.0 11.0 0.00 0.02 0.02 80 1013.3
20260507193016 65 119 8.0 11.0 0.00 0.03 0.02 80 1013.2
20260507191516 65 131 9.0 14.0 0.00 0.03 0.02 81 1013.0